Regional Weather Roundup
Issued by NWS

Home | Current Version | Previous Version | Graphics & Text | Print | Product List | Glossary On
Versions: 1 2 3 4 5 6 7 8 9 10 11 12 13 14 15 16 17 18 19 20 21 22 23 24 25 26 27 28 29 30 31 32 33 34 35 36 37 38 39 40 41 42 43 44 45 46 47 48 49 50
000
ASUS45 KABQ 160301
RWRNM
WEATHER ROUNDUP FOR NEW MEXICO
NATIONAL WEATHER SERVICE ALBUQUERQUE NM
900 PM MDT TUE APR 15 2014

NOTE: "FAIR" MEANS FEW OR NO CLOUDS BELOW 12,000 FEET AGL WITH NO
       SIGNIFICANT WEATHER OR OBSTRUCTIONS TO VISION.

      THIS PRODUCT IS RELEASED AS TWO VERSIONS.  ONE VERSION NEAR
      THE TOP OF THE HOUR CONTAINING PRELIMINARY DATA FROM ALBUQUERQUE
      AND OTHER STATIONS.  A FINAL VERSION WITH ADDITIONAL DATA IS
      ISSUED ABOUT 10 MINUTES AFTER THE HOUR.

NMZ501-503-504-510>518-160400-
NORTHWEST PLATEAU/NORTHCENTRAL MOUNTAINS

CITY           SKY/WX    TMP DP  RH WIND       PRES   REMARKS
FARMINGTON     CLEAR     54   4  13 SW3       29.90R
LOS ALAMOS     PTCLDY    51   6  16 SW8       29.99R
SANTA FE       MOCLDY    50   6  16 W6        29.94R
TAOS           MOCLDY    46   5  18 CALM      29.99R
ANGEL FIRE     FAIR      45  -2  13 W30G41    29.92S

$$
NMZ402-403-502-505>509-160400-
WESTCENTRAL MOUNTAINS/SOUTHWEST MOUNTAINS

CITY           SKY/WX    TMP DP  RH WIND       PRES   REMARKS
GALLUP         MOCLDY    49  -5  10 CALM      29.97R
SILVER CITY    MOCLDY    57   7  13 SE6       30.00S

$$
NMZ407-409-411-412-160400-
SOUTHERN DESERTS

CITY           SKY/WX    TMP DP  RH WIND       PRES   REMARKS
DEMING         CLEAR     57   6  13 NE6       29.93S
LAS CRUCES     MOCLDY    60   7  12 SE5       29.97R
HOLLOMAN AFB   MOCLDY    60   8  12 S9        29.95R
T OR C         PTCLDY    61   8  12 S12       29.94R

$$
NMZ519>523-160400-
CENTRAL VALLEYS/CENTRAL HIGHLANDS

CITY           SKY/WX    TMP DP  RH WIND       PRES   REMARKS
ALBUQUERQUE    MOCLDY    60   8  12 S20       29.92S
DOUBLE EAGLE   CLEAR     52  12  20 S9        29.94R
CLINES CORNERS CLOUDY    49  12  22 SW22      29.96R
BELEN          FAIR      57  10  15 S13G20    29.91R
SOCORRO        NOT AVBL

$$
NMZ524>526-539-540-160400-
SOUTHCENTRAL MOUNTAINS

CITY           SKY/WX    TMP DP  RH WIND       PRES   REMARKS
RUIDOSO        NOT AVBL

$$
NMZ527>531-160400-
NORTHEAST HIGHLANDS/NORTHEAST PLAINS

CITY           SKY/WX    TMP DP  RH WIND       PRES   REMARKS
LAS VEGAS      CLOUDY    49   9  19 SW16      29.92R
RATON          CLEAR     50   3  14 W10       29.83R
CLAYTON        MOCLDY    54  17  23 S17       29.79R

$$
NMZ532>537-160400-
EASTCENTRAL PLAINS

CITY           SKY/WX    TMP DP  RH WIND       PRES   REMARKS
TUCUMCARI      MOCLDY    61   9  12 SW22G29   29.82R
CANNON AFB     CLOUDY    56   6  13 S17       29.91S
CLOVIS AIRPORT CLOUDY    54   9  16 S13       29.94S

$$
NMZ028-029-538-160400-
SOUTHEAST PLAINS

CITY           SKY/WX    TMP DP  RH WIND       PRES   REMARKS
ROSWELL        MOCLDY    59   8  13 S15       29.90R
CARLSBAD       MOCLDY    52   3  13 S9        29.94R
HOBBS          MOCLDY    52   1  12 S9        29.98R


$$



USA.gov is the U.S. government's official web portal to all federal, state and local government web resources and services.